TimeMST,TemperatureF,Dew PointF,Humidity,Sea Level PressureIn,VisibilityMPH,Wind Direction,Wind SpeedMPH,Gust SpeedMPH,PrecipitationIn,Events,Conditions,WindDirDegrees,DateUTC
12:56 AM,30.9,8.1,38,29.91,-9999.0,West,5.8,-,N/A,,Unknown,260,2013-02-17 07:56:00
1:56 AM,30.0,7.0,38,29.89,-9999.0,West,8.1,-,N/A,,Unknown,260,2013-02-17 08:56:00
2:56 AM,27.0,6.1,41,29.87,-9999.0,West,8.1,-,N/A,,Unknown,270,2013-02-17 09:56:00
3:56 AM,37.0,6.1,28,29.82,-9999.0,WNW,15.0,-,N/A,,Unknown,300,2013-02-17 10:56:00
4:56 AM,37.0,7.0,29,29.84,-9999.0,WNW,13.8,-,N/A,,Unknown,300,2013-02-17 11:56:00
5:56 AM,30.9,6.1,35,29.88,-9999.0,WNW,12.7,-,N/A,,Unknown,300,2013-02-17 12:56:00
6:56 AM,36.0,7.0,30,29.86,-9999.0,NW,12.7,-,N/A,,Unknown,310,2013-02-17 13:56:00
7:56 AM,44.1,7.0,22,29.86,-9999.0,WNW,3.5,-,N/A,,Unknown,300,2013-02-17 14:56:00
8:56 AM,52.0,7.0,16,29.81,-9999.0,NW,18.4,25.3,N/A,,Unknown,310,2013-02-17 15:56:00
9:56 AM,62.1,1.0,9,29.78,-9999.0,WSW,11.5,18.4,N/A,,Unknown,240,2013-02-17 16:56:00
10:56 AM,63.0,1.0,8,29.75,-9999.0,SW,15.0,-,N/A,,Unknown,220,2013-02-17 17:56:00
11:56 AM,64.0,1.0,8,29.70,-9999.0,SSW,18.4,26.5,N/A,,Unknown,210,2013-02-17 18:56:00
12:56 PM,64.9,1.0,8,29.63,-9999.0,SSW,19.6,25.3,N/A,,Unknown,210,2013-02-17 19:56:00
1:56 PM,66.9,-2.0,6,29.57,-9999.0,SSW,19.6,24.2,N/A,,Unknown,200,2013-02-17 20:56:00
2:56 PM,64.9,-4.0,6,29.55,-9999.0,SSW,17.3,-,N/A,,Unknown,210,2013-02-17 21:56:00
3:56 PM,66.9,-7.1,5,29.47,-9999.0,SSW,21.9,-,N/A,,Unknown,200,2013-02-17 22:56:00
4:56 PM,57.9,-2.0,9,29.48,-9999.0,SW,16.1,-,N/A,,Unknown,220,2013-02-17 23:56:00
5:56 PM,55.9,-2.0,9,29.50,-9999.0,SW,15.0,-,N/A,,Unknown,220,2013-02-18 00:56:00
6:56 PM,44.1,-2.0,15,29.52,-9999.0,WSW,6.9,-,N/A,,Unknown,250,2013-02-18 01:56:00
7:56 PM,48.0,-5.1,11,29.47,-9999.0,West,8.1,-,N/A,,Unknown,280,2013-02-18 02:56:00
8:56 PM,44.1,-5.1,13,29.47,-9999.0,WNW,11.5,-,N/A,,Unknown,290,2013-02-18 03:56:00
9:56 PM,45.0,-4.0,13,29.44,-9999.0,WNW,15.0,-,N/A,,Unknown,300,2013-02-18 04:56:00
10:56 PM,39.0,-0.9,19,29.49,-9999.0,NW,15.0,-,N/A,,Unknown,320,2013-02-18 05:56:00
11:56 PM,39.9,12.0,32,29.52,-9999.0,NNW,21.9,28.8,N/A,,Unknown,340,2013-02-18 06:56:00